Location: Julian California
(33.0790°N, 116.6010°W)
Time: 10:38:54
(UTC-07:00)

Cosmos 1455 - Pass Details

Date: 12 July 2018
Orbit: 500 x 526 km, 82.5° (Epoch: 22 September)

Event Time Altitude Azimuth Distance (km) Brightness Sun altitude
Rises 21:15:59 0° 348° (NNW) 2,646 6.7 -14.7°
Reaches altitude 10° 21:18:09 10° 344° (NNW) 1,758 5.8 -15.0°
Maximum altitude 21:21:55 54° 266° (W) 640 2.9 -15.7°
Enters shadow 21:25:17 13° 190° (S) 1,599 4.4 -16.2°
